Regional Weather Roundup
Issued by NWS

Home | Current Version | Previous Version | Graphics & Text | Print | Product List | Glossary Off
Versions: 1 2 3 4 5 6 7 8 9 10 11 12 13 14 15 16 17 18 19 20 21 22 23 24 25 26 27 28 29 30 31 32 33 34 35 36 37 38 39 40 41 42 43 44 45 46 47 48 49 50

000
ASUS43 KTOP 222108
RWRKS

WEATHER ROUNDUP FOR KANSAS
NATIONAL WEATHER SERVICE GOODLAND KS
300 PM CST WED FEB 22 2017

NOTE:  "FAIR" INDICATES FEW OR NO CLOUDS BELOW 12,000 FEET WITH NO
SIGNIFICANT WEATHER AND/OR OBSTRUCTIONS TO VISIBILITY.

KSZ001>006-013>018-027>032-041>047-222200-
NORTHWEST KANSAS

CITY           SKY/WX    TMP DP  RH WIND       PRES   REMARKS
GOODLAND       SUNNY     64  20  18 VRB6      29.78F
HAYS             N/A     70  33  25 N7        29.73F
HILL CITY      CLOUDY    70  24  17 N6        29.74F
RUSSELL        CLOUDY    73  32  22 NW10      29.70F
$$

KSZ061>065-074>080-084>089-222200-
SOUTHWEST KANSAS

CITY           SKY/WX    TMP DP  RH WIND       PRES   REMARKS
DODGE CITY     SUNNY     74  27  17 NW10G17   29.74F
ELKHART          N/A     77  24  14 W8          N/A
GARDEN CITY    SUNNY     71  25  17 VRB6G16   29.77F
GREAT BEND     SUNNY     75  30  19 VRB7      29.71F
LIBERAL        SUNNY     75  25  15 NE6       29.77F
PRATT          SUNNY     74  26  16 NW9G16    29.71S
$$

KSZ066>073-081>083-090>101-222200-
SOUTHEAST KANSAS

CITY           SKY/WX    TMP DP  RH WIND       PRES   REMARKS
CHANUTE        SUNNY     81  35  19 SW14      29.69F
COFFEYVILLE    SUNNY     79  42  26 S18       29.69F
HUTCHINSON     SUNNY     79  25  13 VRB6      29.67F
MEDICINE LODGE   N/A     82  24  12 W9        29.68F
NEWTON         SUNNY     78  38  23 SW9       29.68F
PARSONS        SUNNY     80  38  22 S12G20    29.70F
WICHITA INTL   MOSUNNY   75  45  34 S9        29.67F
WICHITA JABRA  SUNNY     75  43  31 S6        29.68F
WICHITA MCCONL SUNNY     76  42  30 SW5       29.68F
WINFIELD       SUNNY     76  45  33 SW13      29.71F
$$

KSZ007>012-019>026-033>040-048>060-102>105-222200-
NORTHEAST KANSAS

CITY           SKY/WX    TMP DP  RH WIND       PRES   REMARKS
CONCORDIA      SUNNY     74  34  23 NW8       29.66F
EMPORIA        SUNNY     79  32  18 W9        29.65F
LAWRENCE       SUNNY     81  36  19 SW13      29.63F
MANHATTAN      SUNNY     80  34  19 W6        29.64F
MARYSVILLE     CLOUDY    77  32  19 N10       29.64F
OLATHE IND     SUNNY     79  36  21 S18       29.65F
OLATHE EXE     SUNNY     77  36  22 S13G23    29.65F
SALINA         SUNNY     77  30  17 NW10      29.67F
TOPEKA BILLARD SUNNY     77  35  21 W8        29.64F
TOPEKA FORBES  SUNNY     79  34  19 W12       29.65F
$$



USA.gov is the U.S. government's official web portal to all federal, state and local government web resources and services.